DMSP 5D-2 F13 DEB, 40464

Orbit data source: Space-Track

DMSP 5D-2 F13 DEB, 40464 is space debris in SSO originally from a launch on Fri, 24 Mar 1995 UTC launched from the Air Force Western Test Range (AFWTR). Debris objects in space refer to the collection of defunct objects orbiting the Earth. Examples of debris include non-operational satellites, rocket bodies, and fragments generated from explosions, collisions, or faulty payload assembly.

Loading next visibility...
Identifier
40464, 1995-015BG
Orbit
SSO
Country
Flag of USUS
Related business
Manufacturer
Unknown
Mission
Spacecraft
Bus & Motor
Unknown
Mass
Unknown
Launch date (UTC)
1995-03-24 (31 years ago)
Launch vehicle
Unknown
Launch site
Air Force Western Test Range (AFWTR)
Object type
Payload
Rocket body
Debris
Shape & HBR
Unknown shape, 0.1 m
Radar Cross Section
Small (<0.1 m²)

Expand to show TLE details & history
Last TLE update: 1 week ago

TLE from 1 week ago
0 DMSP 5D-2 F13 DEB
1 40464U 95015BG  25280.73052998  .00003860  00000-0  22003-2 0  9994
2 40464  98.9291 204.1840 0079260 258.7957 100.4296 14.08732965540066
Epoch: 2025-10-07T17:31Z
TLE epoch observation values (Epoch: 2025-10-07T17:31:57.790Z)
Latitude
0.00004°
Longitude
-75.42203°
Altitude
877.435 km
Speed
7.408 km/s
True Right ascension
13h 36m 44s
True Declination
0° 00' 00"
Sunlit
Object was in daylight at epoch
Visualization orbit readout
Latitude
Unknown
Longitude
Unknown
Altitude
Unknown
Speed
Unknown
Apparent Right ascension
Unknown
Apparent Declination
Unknown
Sunlit
N/A
Visualization observer readout
Local Sidereal Time
13:29:32
Azimuth
Unknown
Elevation
Unknown
Doppler factor
Unknown
Orbital elements
Apogee altitude
918.271 km
Perigee altitude
803.518 km
Semi-major axis
7,239.032 km
Eccentricity
0.00793
Inclination
98.9291°
RAAN
204.184°
Arg. of periapsis
258.7957°
True anomaly
101.32121°
Mean anomaly
100.4296°
Eccentric anomaly
100.87557°
Mean motion
3.52389 °/min
Orbital period
102.16 mins
BSTAR
0.0022003

Documentation

Showing up to 5 results
|